User: anonymous   Login
Location: Oshawa
(43.9000°N, 78.8670°W)
Time: 21:02:39
(UTC-04:00)
Language:

Cosmos 1500 - Orbit

View from above orbital plane
View from above orbital plane
View from above satellite
View from above satellite

Ground track
Ground track

The orbit data is extracted from the following two-line orbital elements,

1 14372U 83099A   15211.21651197  .00001984  00000-0  10410-3 0  9999
2 14372 082.5178 302.4309 0015388 318.1235 101.3277 15.15092817733530
Epoch (UTC): 30 July 2015 05:11:46
Eccentricity: 0.0015388
inclination: 82.5178°
perigee height: 510 km
apogee height: 531 km
right ascension of ascending node: 302.4309°
argument of perigee: 318.1235°
revolutions per day: 15.15092817
mean anomaly at epoch: 101.3277°
orbit number at epoch: 73353

The dashed part of the orbit path shows where the satellite is in the earth's shadow,  

DLR